Wetterdaten: Woche 30.01.17 - 05.02.17 (KW5)
Datum Zeit Temperatur Luftfeuchte Luftdruck Niederschlag Windrichtung Sonnenschein Solar Wind
30.01.2017 00:00 -4,2 C 91 % 1022,5 hPa 0,0 l/m N 0,00 h 0 W/m 0,0 km/h (0 Bft)
30.01.2017 01:00 -4,6 C 92 % 1022,1 hPa 0,0 l/m N 0,00 h 0 W/m 0,1 km/h (0 Bft)
30.01.2017 02:00 -5,0 C 92 % 1021,5 hPa 0,0 l/m N 0,00 h 0 W/m 0,0 km/h (0 Bft)
30.01.2017 03:00 -5,6 C 92 % 1021,2 hPa 0,0 l/m N 0,00 h 0 W/m 0,0 km/h (0 Bft)
30.01.2017 04:00 -5,9 C 93 % 1020,9 hPa 0,0 l/m N 0,00 h 0 W/m 0,0 km/h (0 Bft)
30.01.2017 05:00 -6,3 C 93 % 1020,5 hPa 0,0 l/m N 0,00 h 0 W/m 0,0 km/h (0 Bft)
30.01.2017 06:00 -6,1 C 94 % 1020,2 hPa 0,0 l/m N 0,00 h 0 W/m 0,0 km/h (0 Bft)
30.01.2017 07:00 -5,3 C 95 % 1019,9 hPa 0,0 l/m S-SW 0,00 h 6 W/m 1,9 km/h (1 Bft)
30.01.2017 08:00 -4,1 C 95 % 1019,6 hPa 0,0 l/m S-SW 0,08 h 15 W/m 1,3 km/h (1 Bft)
30.01.2017 09:00 -2,8 C 96 % 1019,3 hPa 0,0 l/m S-SW 0,00 h 51 W/m 2,5 km/h (1 Bft)
30.01.2017 10:00 -0,2 C 95 % 1018,8 hPa 0,0 l/m N 0,17 h 143 W/m 1,3 km/h (1 Bft)
30.01.2017 11:00 1,4 C 90 % 1018,4 hPa 0,0 l/m S-SW 0,08 h 122 W/m 3,6 km/h (1 Bft)
30.01.2017 12:00 2,2 C 91 % 1017,5 hPa 2,0 l/m W-SW 0,00 h 49 W/m 12,7 km/h (3 Bft)
30.01.2017 13:00 2,6 C 93 % 1016,6 hPa 0,0 l/m SW 0,00 h 104 W/m 16,8 km/h (3 Bft)
30.01.2017 14:00 4,4 C 86 % 1015,8 hPa 0,2 l/m W-SW 0,00 h 55 W/m 22,1 km/h (4 Bft)
30.01.2017 15:00 3,7 C 88 % 1015,6 hPa 1,6 l/m SW 0,00 h 31 W/m 15,0 km/h (3 Bft)
30.01.2017 16:00 2,7 C 93 % 1015,5 hPa 1,0 l/m SW 0,00 h 11 W/m 16,9 km/h (3 Bft)
30.01.2017 17:00 2,7 C 94 % 1015,4 hPa 0,2 l/m SW 0,00 h 5 W/m 18,8 km/h (3 Bft)
30.01.2017 18:00 3,0 C 95 % 1015,7 hPa 1,2 l/m W-SW 0,00 h 0 W/m 18,8 km/h (3 Bft)
30.01.2017 19:00 3,0 C 95 % 1015,8 hPa 0,6 l/m SW 0,00 h 0 W/m 17,2 km/h (3 Bft)
30.01.2017 20:00 2,4 C 96 % 1015,8 hPa 0,6 l/m SW 0,00 h 0 W/m 15,4 km/h (3 Bft)
30.01.2017 21:00 2,1 C 96 % 1015,8 hPa 0,2 l/m SW 0,00 h 0 W/m 14,2 km/h (3 Bft)
30.01.2017 22:00 2,3 C 97 % 1015,7 hPa 0,0 l/m SW 0,00 h 0 W/m 15,7 km/h (3 Bft)
30.01.2017 23:00 3,0 C 98 % 1015,6 hPa 0,0 l/m SW 0,00 h 0 W/m 13,8 km/h (3 Bft)
31.01.2017 00:00 2,7 C 98 % 1015,2 hPa 0,0 l/m SW 0,00 h 0 W/m 16,6 km/h (3 Bft)
31.01.2017 01:00 3,5 C 98 % 1015,0 hPa 0,0 l/m SW 0,00 h 0 W/m 18,0 km/h (3 Bft)
31.01.2017 02:00 3,8 C 98 % 1014,7 hPa 0,0 l/m SW 0,00 h 0 W/m 16,8 km/h (3 Bft)
31.01.2017 03:00 4,2 C 98 % 1014,4 hPa 0,0 l/m SW 0,00 h 0 W/m 21,6 km/h (4 Bft)
31.01.2017 04:00 4,5 C 98 % 1014,2 hPa 0,4 l/m SW 0,00 h 0 W/m 22,4 km/h (4 Bft)
31.01.2017 05:00 4,5 C 98 % 1013,9 hPa 0,8 l/m W-SW 0,00 h 0 W/m 20,6 km/h (4 Bft)
31.01.2017 06:00 4,3 C 98 % 1013,7 hPa 0,8 l/m W-SW 0,00 h 0 W/m 17,6 km/h (3 Bft)
31.01.2017 07:00 4,4 C 98 % 1013,6 hPa 0,2 l/m W-SW 0,00 h 0 W/m 20,8 km/h (4 Bft)
31.01.2017 08:00 4,6 C 99 % 1013,6 hPa 1,2 l/m W-SW 0,00 h 10 W/m 17,4 km/h (3 Bft)
31.01.2017 09:00 4,7 C 99 % 1013,8 hPa 1,6 l/m SW 0,00 h 23 W/m 7,8 km/h (2 Bft)
31.01.2017 10:00 4,9 C 99 % 1014,1 hPa 0,8 l/m SW 0,00 h 53 W/m 12,1 km/h (2 Bft)
31.01.2017 11:00 5,3 C 99 % 1014,0 hPa 0,2 l/m W-SW 0,00 h 98 W/m 23,1 km/h (4 Bft)
31.01.2017 12:00 5,7 C 99 % 1013,6 hPa 0,6 l/m W-SW 0,00 h 103 W/m 19,8 km/h (4 Bft)
31.01.2017 13:00 5,8 C 98 % 1013,6 hPa 0,6 l/m W-SW 0,00 h 64 W/m 11,3 km/h (2 Bft)
31.01.2017 14:00 5,9 C 99 % 1013,6 hPa 0,6 l/m W-SW 0,00 h 53 W/m 2,5 km/h (1 Bft)
31.01.2017 15:00 6,0 C 99 % 1013,9 hPa 0,4 l/m W-SW 0,00 h 51 W/m 4,8 km/h (1 Bft)
31.01.2017 16:00 5,8 C 99 % 1014,1 hPa 0,0 l/m W-SW 0,00 h 24 W/m 4,4 km/h (1 Bft)
31.01.2017 17:00 5,5 C 99 % 1014,2 hPa 0,2 l/m N 0,00 h 5 W/m 0,0 km/h (0 Bft)
31.01.2017 18:00 4,9 C 99 % 1014,6 hPa 0,2 l/m N 0,00 h 0 W/m 0,8 km/h (0 Bft)
31.01.2017 19:00 4,6 C 99 % 1014,7 hPa 0,0 l/m N 0,00 h 0 W/m 0,0 km/h (0 Bft)
31.01.2017 20:00 4,4 C 99 % 1015,0 hPa 0,0 l/m N 0,00 h 0 W/m 0,0 km/h (0 Bft)
31.01.2017 21:00 4,1 C 99 % 1015,4 hPa 0,4 l/m W 0,00 h 0 W/m 2,5 km/h (1 Bft)
31.01.2017 22:00 3,4 C 98 % 1015,9 hPa 0,4 l/m NW 0,00 h 0 W/m 2,0 km/h (1 Bft)
31.01.2017 23:00 3,0 C 99 % 1016,2 hPa 0,0 l/m NW 0,00 h 0 W/m 2,8 km/h (1 Bft)
01.02.2017 00:00 2,7 C 99 % 1016,1 hPa 0,0 l/m N 0,00 h 0 W/m 0,0 km/h (0 Bft)
01.02.2017 01:00 2,5 C 99 % 1016,0 hPa 0,0 l/m NW 0,00 h 0 W/m 0,5 km/h (0 Bft)
01.02.2017 02:00 2,3 C 99 % 1016,5 hPa 0,0 l/m NW 0,00 h 0 W/m 2,1 km/h (1 Bft)
01.02.2017 03:00 2,0 C 99 % 1016,5 hPa 0,0 l/m NW 0,00 h 0 W/m 3,2 km/h (1 Bft)
01.02.2017 04:00 1,7 C 99 % 1016,4 hPa 0,0 l/m N 0,00 h 0 W/m 0,7 km/h (0 Bft)
01.02.2017 05:00 1,5 C 99 % 1016,4 hPa 0,0 l/m N 0,00 h 0 W/m 0,1 km/h (0 Bft)
01.02.2017 06:00 1,3 C 99 % 1016,4 hPa 0,0 l/m N 0,00 h 0 W/m 0,1 km/h (0 Bft)
01.02.2017 07:00 1,1 C 99 % 1016,4 hPa 0,0 l/m N 0,00 h 5 W/m 0,0 km/h (0 Bft)
01.02.2017 08:00 1,1 C 99 % 1016,7 hPa 0,0 l/m NW 0,00 h 15 W/m 2,5 km/h (1 Bft)
01.02.2017 09:00 1,1 C 99 % 1016,9 hPa 0,0 l/m NW 0,00 h 40 W/m 1,3 km/h (1 Bft)
01.02.2017 10:00 1,3 C 99 % 1017,0 hPa 0,0 l/m N 0,00 h 53 W/m 0,5 km/h (0 Bft)
01.02.2017 11:00 1,7 C 99 % 1017,1 hPa 0,0 l/m N 0,00 h 52 W/m 0,4 km/h (0 Bft)
01.02.2017 12:00 2,2 C 99 % 1016,7 hPa 0,2 l/m NW 0,00 h 95 W/m 2,3 km/h (1 Bft)
01.02.2017 13:00 2,5 C 99 % 1016,2 hPa 0,0 l/m N 0,00 h 61 W/m 0,0 km/h (0 Bft)
01.02.2017 14:00 2,7 C 100 % 1016,1 hPa 0,2 l/m N 0,00 h 34 W/m 0,0 km/h (0 Bft)
01.02.2017 15:00 2,7 C 99 % 1016,2 hPa 0,2 l/m N 0,00 h 36 W/m 0,0 km/h (0 Bft)
01.02.2017 16:00 2,7 C 100 % 1016,0 hPa 0,0 l/m N 0,00 h 32 W/m 0,0 km/h (0 Bft)
01.02.2017 17:00 2,7 C 100 % 1016,0 hPa 0,0 l/m NW 0,00 h 8 W/m 0,0 km/h (0 Bft)
01.02.2017 18:00 2,4 C 99 % 1015,9 hPa 0,0 l/m NW 0,00 h 0 W/m 1,6 km/h (1 Bft)
01.02.2017 19:00 2,2 C 99 % 1015,9 hPa 0,0 l/m N 0,00 h 0 W/m 0,3 km/h (0 Bft)
01.02.2017 20:00 1,7 C 99 % 1015,6 hPa 0,2 l/m N 0,00 h 0 W/m 0,0 km/h (0 Bft)
01.02.2017 21:00 1,1 C 99 % 1015,6 hPa 0,0 l/m N 0,00 h 0 W/m 0,0 km/h (0 Bft)
01.02.2017 22:00 0,6 C 99 % 1015,6 hPa 0,0 l/m N 0,00 h 0 W/m 0,0 km/h (0 Bft)
01.02.2017 23:00 0,2 C 99 % 1015,6 hPa 0,0 l/m N 0,00 h 0 W/m 0,0 km/h (0 Bft)
02.02.2017 00:00 0,1 C 99 % 1015,6 hPa 0,0 l/m N 0,00 h 0 W/m 0,0 km/h (0 Bft)
02.02.2017 01:00 -0,1 C 99 % 1015,4 hPa 0,0 l/m N 0,00 h 0 W/m 0,0 km/h (0 Bft)
02.02.2017 02:00 -0,1 C 99 % 1015,2 hPa 0,0 l/m N 0,00 h 0 W/m 0,0 km/h (0 Bft)
02.02.2017 03:00 -0,2 C 99 % 1015,1 hPa 0,0 l/m N 0,00 h 0 W/m 0,0 km/h (0 Bft)
02.02.2017 04:00 -0,3 C 99 % 1014,8 hPa 0,0 l/m N 0,00 h 0 W/m 0,0 km/h (0 Bft)
02.02.2017 05:00 -0,4 C 99 % 1014,8 hPa 0,0 l/m N 0,00 h 0 W/m 0,0 km/h (0 Bft)
02.02.2017 06:00 -0,5 C 99 % 1014,9 hPa 0,0 l/m N 0,00 h 0 W/m 0,0 km/h (0 Bft)
02.02.2017 07:00 -0,5 C 99 % 1014,8 hPa 0,0 l/m N 0,00 h 5 W/m 0,0 km/h (0 Bft)
02.02.2017 08:00 -0,5 C 99 % 1014,7 hPa 0,0 l/m N 0,00 h 26 W/m 0,0 km/h (0 Bft)
02.02.2017 09:00 0,2 C 100 % 1014,3 hPa 0,0 l/m N 0,42 h 150 W/m 0,0 km/h (0 Bft)
02.02.2017 10:00 2,3 C 100 % 1013,7 hPa 0,0 l/m N 0,92 h 297 W/m 0,0 km/h (0 Bft)
02.02.2017 11:00 6,2 C 98 % 1012,8 hPa 0,0 l/m NW 1,00 h 379 W/m 1,5 km/h (1 Bft)
02.02.2017 12:00 7,8 C 94 % 1011,7 hPa 0,0 l/m NW 0,83 h 345 W/m 5,9 km/h (2 Bft)
02.02.2017 13:00 7,3 C 94 % 1010,7 hPa 0,0 l/m NW 0,83 h 269 W/m 5,7 km/h (1 Bft)
02.02.2017 14:00 8,3 C 94 % 1009,8 hPa 0,0 l/m NW 1,00 h 289 W/m 6,1 km/h (2 Bft)
02.02.2017 15:00 8,7 C 92 % 1009,2 hPa 0,0 l/m NW 0,67 h 151 W/m 3,9 km/h (1 Bft)
02.02.2017 16:00 7,0 C 94 % 1009,0 hPa 0,0 l/m NW 0,00 h 53 W/m 5,1 km/h (1 Bft)
02.02.2017 17:00 4,7 C 96 % 1009,2 hPa 0,0 l/m NW 0,08 h 12 W/m 7,5 km/h (2 Bft)
02.02.2017 18:00 3,5 C 96 % 1009,5 hPa 0,0 l/m NW 0,00 h 0 W/m 7,8 km/h (2 Bft)
02.02.2017 19:00 2,8 C 97 % 1009,8 hPa 0,0 l/m N-NW 0,00 h 0 W/m 6,7 km/h (2 Bft)
02.02.2017 20:00 2,5 C 97 % 1009,8 hPa 0,0 l/m N 0,00 h 0 W/m 0,4 km/h (0 Bft)
02.02.2017 21:00 2,2 C 97 % 1009,5 hPa 0,0 l/m N 0,00 h 0 W/m 0,3 km/h (0 Bft)
02.02.2017 22:00 1,6 C 97 % 1009,1 hPa 0,0 l/m N 0,00 h 0 W/m 0,1 km/h (0 Bft)
02.02.2017 23:00 0,5 C 97 % 1008,7 hPa 0,0 l/m N 0,00 h 0 W/m 0,0 km/h (0 Bft)
03.02.2017 00:00 -0,1 C 97 % 1008,4 hPa 0,0 l/m N-NW 0,00 h 0 W/m 1,1 km/h (0 Bft)
03.02.2017 01:00 -0,1 C 98 % 1008,6 hPa 0,0 l/m N 0,00 h 0 W/m 0,4 km/h (0 Bft)
03.02.2017 02:00 0,0 C 98 % 1008,5 hPa 0,0 l/m N 0,00 h 0 W/m 0,0 km/h (0 Bft)
03.02.2017 03:00 0,0 C 98 % 1008,2 hPa 0,0 l/m N 0,00 h 0 W/m 0,0 km/h (0 Bft)
03.02.2017 04:00 0,0 C 98 % 1007,6 hPa 0,0 l/m N-NW 0,00 h 0 W/m 0,7 km/h (0 Bft)
03.02.2017 05:00 0,2 C 98 % 1007,2 hPa 0,0 l/m N 0,00 h 0 W/m 0,0 km/h (0 Bft)
03.02.2017 06:00 0,2 C 98 % 1006,9 hPa 0,0 l/m N 0,00 h 0 W/m 0,0 km/h (0 Bft)
03.02.2017 07:00 0,4 C 99 % 1007,0 hPa 0,0 l/m N-NW 0,00 h 0 W/m 0,7 km/h (0 Bft)
03.02.2017 08:00 1,8 C 100 % 1007,9 hPa 0,0 l/m W-NW 0,00 h 28 W/m 6,2 km/h (2 Bft)
03.02.2017 09:00 3,2 C 99 % 1008,5 hPa 0,0 l/m S-SW 0,00 h 64 W/m 3,3 km/h (1 Bft)
03.02.2017 10:00 2,8 C 99 % 1009,0 hPa 0,0 l/m S 0,00 h 32 W/m 9,5 km/h (2 Bft)
03.02.2017 11:00 3,5 C 99 % 1009,1 hPa 0,2 l/m S 0,00 h 98 W/m 9,5 km/h (2 Bft)
03.02.2017 12:00 4,4 C 100 % 1008,7 hPa 0,0 l/m S-SW 0,08 h 110 W/m 12,0 km/h (2 Bft)
03.02.2017 13:00 5,3 C 99 % 1007,8 hPa 0,0 l/m S-SW 0,00 h 107 W/m 6,2 km/h (2 Bft)
03.02.2017 14:00 5,7 C 98 % 1007,1 hPa 0,0 l/m SW 0,00 h 83 W/m 5,7 km/h (1 Bft)
03.02.2017 15:00 5,8 C 96 % 1007,2 hPa 0,0 l/m SW 0,00 h 76 W/m 4,7 km/h (1 Bft)
03.02.2017 16:00 5,9 C 95 % 1006,9 hPa 0,0 l/m SW 0,00 h 55 W/m 2,9 km/h (1 Bft)
03.02.2017 17:00 5,6 C 95 % 1006,7 hPa 0,0 l/m N 0,00 h 9 W/m 0,3 km/h (0 Bft)
03.02.2017 18:00 3,8 C 94 % 1006,8 hPa 0,0 l/m N 0,00 h 0 W/m 0,0 km/h (0 Bft)
03.02.2017 19:00 2,2 C 94 % 1007,2 hPa 0,0 l/m N 0,00 h 0 W/m 0,0 km/h (0 Bft)
03.02.2017 20:00 1,3 C 95 % 1007,8 hPa 0,0 l/m N 0,00 h 0 W/m 0,0 km/h (0 Bft)
03.02.2017 21:00 0,9 C 95 % 1008,2 hPa 0,0 l/m SW 0,00 h 0 W/m 0,0 km/h (0 Bft)
03.02.2017 22:00 1,3 C 97 % 1008,3 hPa 0,0 l/m SW 0,00 h 0 W/m 8,0 km/h (2 Bft)
03.02.2017 23:00 3,3 C 98 % 1008,2 hPa 0,0 l/m SW 0,00 h 0 W/m 15,7 km/h (3 Bft)
04.02.2017 00:00 2,5 C 97 % 1007,8 hPa 0,0 l/m SW 0,00 h 0 W/m 9,5 km/h (2 Bft)
04.02.2017 01:00 2,0 C 97 % 1007,7 hPa 0,0 l/m SW 0,00 h 0 W/m 10,2 km/h (2 Bft)
04.02.2017 02:00 1,9 C 98 % 1008,1 hPa 0,0 l/m SW 0,00 h 0 W/m 10,6 km/h (2 Bft)
04.02.2017 03:00 1,4 C 98 % 1007,4 hPa 0,0 l/m SW 0,00 h 0 W/m 7,9 km/h (2 Bft)
04.02.2017 04:00 1,4 C 98 % 1006,5 hPa 0,0 l/m SW 0,00 h 0 W/m 5,6 km/h (1 Bft)
04.02.2017 05:00 0,3 C 97 % 1005,5 hPa 0,0 l/m N 0,00 h 0 W/m 0,0 km/h (0 Bft)
04.02.2017 06:00 -0,7 C 97 % 1004,7 hPa 0,0 l/m N 0,00 h 0 W/m 0,0 km/h (0 Bft)
04.02.2017 07:00 -0,9 C 98 % 1004,2 hPa 0,0 l/m N 0,00 h 9 W/m 0,8 km/h (0 Bft)
04.02.2017 08:00 -0,6 C 98 % 1003,8 hPa 0,0 l/m N 0,17 h 45 W/m 0,0 km/h (0 Bft)
04.02.2017 09:00 0,7 C 99 % 1003,3 hPa 0,2 l/m SW 0,00 h 92 W/m 1,5 km/h (1 Bft)
04.02.2017 10:00 1,6 C 99 % 1002,0 hPa 0,0 l/m W 0,00 h 132 W/m 4,9 km/h (1 Bft)
04.02.2017 11:00 2,8 C 97 % 1001,1 hPa 0,0 l/m W-NW 0,00 h 159 W/m 4,7 km/h (1 Bft)
04.02.2017 12:00 4,2 C 93 % 1000,3 hPa 0,0 l/m W-NW 0,00 h 164 W/m 4,5 km/h (1 Bft)
04.02.2017 13:00 4,5 C 91 % 1000,4 hPa 0,0 l/m W 0,00 h 112 W/m 6,8 km/h (2 Bft)
04.02.2017 14:00 5,7 C 86 % 999,7 hPa 0,0 l/m W-SW 0,83 h 283 W/m 2,4 km/h (1 Bft)
04.02.2017 15:00 6,7 C 82 % 999,6 hPa 0,0 l/m W-SW 0,42 h 142 W/m 2,3 km/h (1 Bft)
04.02.2017 16:00 5,9 C 86 % 1000,7 hPa 0,0 l/m W-SW 0,00 h 26 W/m 3,2 km/h (1 Bft)
04.02.2017 17:00 5,9 C 86 % 1001,7 hPa 0,0 l/m SW 0,00 h 9 W/m 31,0 km/h (5 Bft)
04.02.2017 18:00 5,6 C 87 % 1002,6 hPa 0,0 l/m W-SW 0,00 h 0 W/m 33,0 km/h (5 Bft)
04.02.2017 19:00 5,2 C 87 % 1003,6 hPa 0,2 l/m W-SW 0,00 h 0 W/m 36,3 km/h (5 Bft)
04.02.2017 20:00 4,6 C 88 % 1004,2 hPa 0,2 l/m W-SW 0,00 h 0 W/m 36,9 km/h (5 Bft)
04.02.2017 21:00 4,2 C 90 % 1004,8 hPa 0,2 l/m W 0,00 h 0 W/m 39,4 km/h (6 Bft)
04.02.2017 22:00 4,5 C 84 % 1005,5 hPa 0,0 l/m W-SW 0,00 h 0 W/m 29,6 km/h (5 Bft)
04.02.2017 23:00 4,9 C 77 % 1005,7 hPa 0,0 l/m W-SW 0,00 h 0 W/m 32,7 km/h (5 Bft)
05.02.2017 00:00 4,6 C 74 % 1006,0 hPa 0,0 l/m W-SW 0,00 h 0 W/m 23,6 km/h (4 Bft)
05.02.2017 01:00 4,1 C 74 % 1006,1 hPa 0,0 l/m W-SW 0,00 h 0 W/m 17,7 km/h (3 Bft)
05.02.2017 02:00 3,1 C 78 % 1006,2 hPa 0,0 l/m SW 0,00 h 0 W/m 9,8 km/h (2 Bft)
05.02.2017 03:00 1,8 C 83 % 1005,7 hPa 0,0 l/m SW 0,00 h 0 W/m 7,4 km/h (2 Bft)
05.02.2017 04:00 0,8 C 86 % 1005,3 hPa 0,0 l/m SW 0,00 h 0 W/m 2,4 km/h (1 Bft)
05.02.2017 05:00 -0,5 C 88 % 1005,1 hPa 0,0 l/m N 0,00 h 0 W/m 0,0 km/h (0 Bft)
05.02.2017 06:00 -1,4 C 89 % 1004,5 hPa 0,0 l/m N 0,00 h 0 W/m 0,0 km/h (0 Bft)
05.02.2017 07:00 -1,9 C 90 % 1004,0 hPa 0,0 l/m N 0,08 h 14 W/m 0,0 km/h (0 Bft)
05.02.2017 08:00 -1,6 C 93 % 1003,5 hPa 0,0 l/m N 0,42 h 45 W/m 0,0 km/h (0 Bft)
05.02.2017 09:00 -0,4 C 95 % 1002,6 hPa 0,0 l/m N 0,00 h 67 W/m 0,3 km/h (0 Bft)
05.02.2017 10:00 1,2 C 92 % 1002,1 hPa 0,0 l/m N-NW 0,00 h 109 W/m 7,5 km/h (2 Bft)
05.02.2017 11:00 2,2 C 88 % 1001,9 hPa 0,0 l/m N 0,00 h 133 W/m 12,5 km/h (3 Bft)
05.02.2017 12:00 3,4 C 84 % 1001,0 hPa 0,0 l/m N 0,00 h 186 W/m 8,2 km/h (2 Bft)
05.02.2017 13:00 4,8 C 79 % 1000,6 hPa 0,0 l/m N 0,00 h 194 W/m 8,2 km/h (2 Bft)
05.02.2017 14:00 5,4 C 78 % 1000,4 hPa 0,0 l/m N 0,00 h 149 W/m 7,5 km/h (2 Bft)
05.02.2017 15:00 4,9 C 80 % 1000,5 hPa 0,0 l/m N-NW 0,00 h 98 W/m 8,3 km/h (2 Bft)
05.02.2017 16:00 4,6 C 81 % 1000,8 hPa 0,0 l/m N 0,00 h 33 W/m 0,3 km/h (0 Bft)
05.02.2017 17:00 4,1 C 84 % 1001,3 hPa 0,0 l/m NW 0,00 h 8 W/m 2,0 km/h (1 Bft)
05.02.2017 18:00 3,6 C 85 % 1002,0 hPa 0,0 l/m N 0,00 h 0 W/m 0,0 km/h (0 Bft)
05.02.2017 19:00 3,1 C 87 % 1002,2 hPa 0,0 l/m NW 0,00 h 0 W/m 4,3 km/h (1 Bft)
05.02.2017 20:00 2,8 C 90 % 1002,3 hPa 0,0 l/m W 0,00 h 0 W/m 4,5 km/h (1 Bft)
05.02.2017 21:00 2,5 C 91 % 1002,5 hPa 0,0 l/m N 0,00 h 0 W/m 0,4 km/h (0 Bft)
05.02.2017 22:00 2,3 C 93 % 1002,6 hPa 0,0 l/m W 0,00 h 0 W/m 4,7 km/h (1 Bft)
05.02.2017 23:00 2,2 C 94 % 1003,3 hPa 0,0 l/m NW 0,00 h 0 W/m 2,1 km/h (1 Bft)
Min-Datum _ 30.01.17 05.02.17 04.02.17 - - - - 30.01.17
_ Min-Zeit 05:20 00:50 14:55 - - - - 00:00
Minimum _ -6,3 C 72 % 999,3 hPa - - - - 0,0 km/h (0 Bft)
Max-Datum _ 02.02.17 31.01.17 30.01.17 30.01.17 - 30.01.17 04.02.17 04.02.17
_ Max-Zeit 15:00 10:45 00:00 12:10 - 08:05 14:05 17:50
Maximum _ 9,3 C 100 % 1022,6 hPa 2,0 l/m - 0,08 h 480 W/m 62,8 km/h
W-SW (8 Bft)
Durchschnitt _ 2,3 C 95 % 1010,8 hPa #18,8 l/m SW #8:05 h 85 W/m 6,4 km/h (2 Bft)